Location: Aytr�
(46.1357°N, 1.1145°W)
Time: 12:33:32
(UTC+00:00)

Cosmos 2154 Rocket - Pass Details

Date: 03 March 2021
Orbit: 967 x 996 km, 82.9° (Epoch: 19 April)

Event Time Altitude Azimuth Distance (km) Brightness Sun altitude
Rises 19:18:31 0° 197° (SSW) 3,657 7.1 -15.5°
Reaches altitude 10° 19:21:03 10° 200° (SSW) 2,710 6.5 -15.9°
Maximum altitude 19:27:12 63° 281° (WNW) 1,073 4.5 -16.9°
Drops below altitude 10° 19:33:22 10° 3° (N) 2,718 6.4 -18.0°
Sets 19:35:55 0° 7° (N) 3,669 7.1 -18.4°
